Index of /20260411/WXO-DD/model_rdps/10km/18/068
Name Last modified Size Description
Parent Directory -
20260411T18Z_MSC_RDPS_AbsoluteVorticity_IsbL-0250_RLatLon0.09_PT068H.grib2 2026-04-11 21:08 595K
20260411T18Z_MSC_RDPS_AbsoluteVorticity_IsbL-0500_RLatLon0.09_PT068H.grib2 2026-04-11 21:08 558K
20260411T18Z_MSC_RDPS_AbsoluteVorticity_IsbL-0700_RLatLon0.09_PT068H.grib2 2026-04-11 21:08 620K
20260411T18Z_MSC_RDPS_AbsoluteVorticity_IsbL-0850_RLatLon0.09_PT068H.grib2 2026-04-11 21:08 795K
20260411T18Z_MSC_RDPS_AirTemp_AGL-120m_RLatLon0.09_PT068H.grib2 2026-04-11 21:08 384K
20260411T18Z_MSC_RDPS_AirTemp_AGL-2m_RLatLon0.09_PT068H.grib2 2026-04-11 21:08 647K
20260411T18Z_MSC_RDPS_AirTemp_AGL-40m_RLatLon0.09_PT068H.grib2 2026-04-11 21:08 416K
20260411T18Z_MSC_RDPS_AirTemp_AGL-80m_RLatLon0.09_PT068H.grib2 2026-04-11 21:08 407K
20260411T18Z_MSC_RDPS_AirTemp_IsbL-0001_RLatLon0.09_PT068H.grib2 2026-04-11 21:08 309K
20260411T18Z_MSC_RDPS_AirTemp_IsbL-0005_RLatLon0.09_PT068H.grib2 2026-04-11 21:08 256K
20260411T18Z_MSC_RDPS_AirTemp_IsbL-0010_RLatLon0.09_PT068H.grib2 2026-04-11 21:08 345K
20260411T18Z_MSC_RDPS_AirTemp_IsbL-0020_RLatLon0.09_PT068H.grib2 2026-04-11 21:08 365K
20260411T18Z_MSC_RDPS_AirTemp_IsbL-0030_RLatLon0.09_PT068H.grib2 2026-04-11 21:08 384K
20260411T18Z_MSC_RDPS_AirTemp_IsbL-0050_RLatLon0.09_PT068H.grib2 2026-04-11 21:08 336K
20260411T18Z_MSC_RDPS_AirTemp_IsbL-0100_RLatLon0.09_PT068H.grib2 2026-04-11 21:08 401K
20260411T18Z_MSC_RDPS_AirTemp_IsbL-0150_RLatLon0.09_PT068H.grib2 2026-04-11 21:08 409K
20260411T18Z_MSC_RDPS_AirTemp_IsbL-0175_RLatLon0.09_PT068H.grib2 2026-04-11 21:08 407K
20260411T18Z_MSC_RDPS_AirTemp_IsbL-0200_RLatLon0.09_PT068H.grib2 2026-04-11 21:08 409K
20260411T18Z_MSC_RDPS_AirTemp_IsbL-0225_RLatLon0.09_PT068H.grib2 2026-04-11 21:08 410K
20260411T18Z_MSC_RDPS_AirTemp_IsbL-0250_RLatLon0.09_PT068H.grib2 2026-04-11 21:08 418K
20260411T18Z_MSC_RDPS_AirTemp_IsbL-0275_RLatLon0.09_PT068H.grib2 2026-04-11 21:08 403K
20260411T18Z_MSC_RDPS_AirTemp_IsbL-0300_RLatLon0.09_PT068H.grib2 2026-04-11 21:08 433K
20260411T18Z_MSC_RDPS_AirTemp_IsbL-0350_RLatLon0.09_PT068H.grib2 2026-04-11 21:08 422K
20260411T18Z_MSC_RDPS_AirTemp_IsbL-0400_RLatLon0.09_PT068H.grib2 2026-04-11 21:08 389K
20260411T18Z_MSC_RDPS_AirTemp_IsbL-0450_RLatLon0.09_PT068H.grib2 2026-04-11 21:08 397K
20260411T18Z_MSC_RDPS_AirTemp_IsbL-0500_RLatLon0.09_PT068H.grib2 2026-04-11 21:08 409K
20260411T18Z_MSC_RDPS_AirTemp_IsbL-0550_RLatLon0.09_PT068H.grib2 2026-04-11 21:08 429K
20260411T18Z_MSC_RDPS_AirTemp_IsbL-0600_RLatLon0.09_PT068H.grib2 2026-04-11 21:08 448K
20260411T18Z_MSC_RDPS_AirTemp_IsbL-0650_RLatLon0.09_PT068H.grib2 2026-04-11 21:08 463K
20260411T18Z_MSC_RDPS_AirTemp_IsbL-0700_RLatLon0.09_PT068H.grib2 2026-04-11 21:08 378K
20260411T18Z_MSC_RDPS_AirTemp_IsbL-0750_RLatLon0.09_PT068H.grib2 2026-04-11 21:08 414K
20260411T18Z_MSC_RDPS_AirTemp_IsbL-0800_RLatLon0.09_PT068H.grib2 2026-04-11 21:08 462K
20260411T18Z_MSC_RDPS_AirTemp_IsbL-0850_RLatLon0.09_PT068H.grib2 2026-04-11 21:08 517K
20260411T18Z_MSC_RDPS_AirTemp_IsbL-0875_RLatLon0.09_PT068H.grib2 2026-04-11 21:08 529K
20260411T18Z_MSC_RDPS_AirTemp_IsbL-0900_RLatLon0.09_PT068H.grib2 2026-04-11 21:08 529K
20260411T18Z_MSC_RDPS_AirTemp_IsbL-0925_RLatLon0.09_PT068H.grib2 2026-04-11 21:08 524K
20260411T18Z_MSC_RDPS_AirTemp_IsbL-0950_RLatLon0.09_PT068H.grib2 2026-04-11 21:08 524K
20260411T18Z_MSC_RDPS_AirTemp_IsbL-0970_RLatLon0.09_PT068H.grib2 2026-04-11 21:08 533K
20260411T18Z_MSC_RDPS_AirTemp_IsbL-0985_RLatLon0.09_PT068H.grib2 2026-04-11 21:08 524K
20260411T18Z_MSC_RDPS_AirTemp_IsbL-1000_RLatLon0.09_PT068H.grib2 2026-04-11 21:08 512K
20260411T18Z_MSC_RDPS_AirTemp_IsbL-1015_RLatLon0.09_PT068H.grib2 2026-04-11 21:08 507K
20260411T18Z_MSC_RDPS_Albedo_Sfc_RLatLon0.09_PT068H.grib2 2026-04-11 21:08 166K
20260411T18Z_MSC_RDPS_CAPE_Sfc_RLatLon0.09_PT068H.grib2 2026-04-11 21:08 1.6M
20260411T18Z_MSC_RDPS_CIN_Sfc_RLatLon0.09_PT068H.grib2 2026-04-11 21:08 1.1M
20260411T18Z_MSC_RDPS_CloudWater_EAtm_RLatLon0.09_PT068H.grib2 2026-04-11 21:08 210K
20260411T18Z_MSC_RDPS_ConvectivePrecip-Accum_Sfc_RLatLon0.09_PT068H.grib2 2026-04-11 21:08 1.3M
20260411T18Z_MSC_RDPS_DewPointDepression_AGL-2m_RLatLon0.09_PT068H.grib2 2026-04-11 21:08 397K
20260411T18Z_MSC_RDPS_DewPointDepression_IsbL-0001_RLatLon0.09_PT068H.grib2 2026-04-11 21:08 193
20260411T18Z_MSC_RDPS_DewPointDepression_IsbL-0005_RLatLon0.09_PT068H.grib2 2026-04-11 21:08 193
20260411T18Z_MSC_RDPS_DewPointDepression_IsbL-0010_RLatLon0.09_PT068H.grib2 2026-04-11 21:08 193
20260411T18Z_MSC_RDPS_DewPointDepression_IsbL-0020_RLatLon0.09_PT068H.grib2 2026-04-11 21:08 193
20260411T18Z_MSC_RDPS_DewPointDepression_IsbL-0030_RLatLon0.09_PT068H.grib2 2026-04-11 21:08 33K
20260411T18Z_MSC_RDPS_DewPointDepression_IsbL-0050_RLatLon0.09_PT068H.grib2 2026-04-11 21:08 127K
20260411T18Z_MSC_RDPS_DewPointDepression_IsbL-0100_RLatLon0.09_PT068H.grib2 2026-04-11 21:08 131K
20260411T18Z_MSC_RDPS_DewPointDepression_IsbL-0150_RLatLon0.09_PT068H.grib2 2026-04-11 21:08 140K
20260411T18Z_MSC_RDPS_DewPointDepression_IsbL-0175_RLatLon0.09_PT068H.grib2 2026-04-11 21:08 169K
20260411T18Z_MSC_RDPS_DewPointDepression_IsbL-0200_RLatLon0.09_PT068H.grib2 2026-04-11 21:08 202K
20260411T18Z_MSC_RDPS_DewPointDepression_IsbL-0225_RLatLon0.09_PT068H.grib2 2026-04-11 21:08 240K
20260411T18Z_MSC_RDPS_DewPointDepression_IsbL-0250_RLatLon0.09_PT068H.grib2 2026-04-11 21:08 278K
20260411T18Z_MSC_RDPS_DewPointDepression_IsbL-0275_RLatLon0.09_PT068H.grib2 2026-04-11 21:08 290K
20260411T18Z_MSC_RDPS_DewPointDepression_IsbL-0300_RLatLon0.09_PT068H.grib2 2026-04-11 21:08 308K
20260411T18Z_MSC_RDPS_DewPointDepression_IsbL-0350_RLatLon0.09_PT068H.grib2 2026-04-11 21:08 317K
20260411T18Z_MSC_RDPS_DewPointDepression_IsbL-0400_RLatLon0.09_PT068H.grib2 2026-04-11 21:08 328K
20260411T18Z_MSC_RDPS_DewPointDepression_IsbL-0450_RLatLon0.09_PT068H.grib2 2026-04-11 21:08 335K
20260411T18Z_MSC_RDPS_DewPointDepression_IsbL-0500_RLatLon0.09_PT068H.grib2 2026-04-11 21:08 341K
20260411T18Z_MSC_RDPS_DewPointDepression_IsbL-0550_RLatLon0.09_PT068H.grib2 2026-04-11 21:08 357K
20260411T18Z_MSC_RDPS_DewPointDepression_IsbL-0600_RLatLon0.09_PT068H.grib2 2026-04-11 21:08 368K
20260411T18Z_MSC_RDPS_DewPointDepression_IsbL-0650_RLatLon0.09_PT068H.grib2 2026-04-11 21:08 376K
20260411T18Z_MSC_RDPS_DewPointDepression_IsbL-0700_RLatLon0.09_PT068H.grib2 2026-04-11 21:08 387K
20260411T18Z_MSC_RDPS_DewPointDepression_IsbL-0750_RLatLon0.09_PT068H.grib2 2026-04-11 21:08 404K
20260411T18Z_MSC_RDPS_DewPointDepression_IsbL-0800_RLatLon0.09_PT068H.grib2 2026-04-11 21:08 432K
20260411T18Z_MSC_RDPS_DewPointDepression_IsbL-0850_RLatLon0.09_PT068H.grib2 2026-04-11 21:08 473K
20260411T18Z_MSC_RDPS_DewPointDepression_IsbL-0875_RLatLon0.09_PT068H.grib2 2026-04-11 21:08 468K
20260411T18Z_MSC_RDPS_DewPointDepression_IsbL-0900_RLatLon0.09_PT068H.grib2 2026-04-11 21:08 450K
20260411T18Z_MSC_RDPS_DewPointDepression_IsbL-0925_RLatLon0.09_PT068H.grib2 2026-04-11 21:08 436K
20260411T18Z_MSC_RDPS_DewPointDepression_IsbL-0950_RLatLon0.09_PT068H.grib2 2026-04-11 21:08 431K
20260411T18Z_MSC_RDPS_DewPointDepression_IsbL-0970_RLatLon0.09_PT068H.grib2 2026-04-11 21:08 430K
20260411T18Z_MSC_RDPS_DewPointDepression_IsbL-0985_RLatLon0.09_PT068H.grib2 2026-04-11 21:08 426K
20260411T18Z_MSC_RDPS_DewPointDepression_IsbL-1000_RLatLon0.09_PT068H.grib2 2026-04-11 21:08 423K
20260411T18Z_MSC_RDPS_DewPointDepression_IsbL-1015_RLatLon0.09_PT068H.grib2 2026-04-11 21:08 417K
20260411T18Z_MSC_RDPS_DewPoint_AGL-2m_RLatLon0.09_PT068H.grib2 2026-04-11 21:08 312K
20260411T18Z_MSC_RDPS_DownwardLongwaveRadiationFlux-Accum_Sfc_RLatLon0.09_PT068H.grib2 2026-04-11 21:08 410K
20260411T18Z_MSC_RDPS_DownwardShortwaveRadiationFlux-Accum_NTAtm_RLatLon0.09_PT068H.grib2 2026-04-11 21:08 107K
20260411T18Z_MSC_RDPS_DownwardShortwaveRadiationFlux-Accum_Sfc_RLatLon0.09_PT068H.grib2 2026-04-11 21:08 576K
20260411T18Z_MSC_RDPS_FreezingRain-Accum1h_Sfc_RLatLon0.09_PT068H.grib2 2026-04-11 21:08 18K
20260411T18Z_MSC_RDPS_FreezingRain-Accum_Sfc_RLatLon0.09_PT068H.grib2 2026-04-11 21:08 159K
20260411T18Z_MSC_RDPS_GeopotentialHeight_IsbL-0001_RLatLon0.09_PT068H.grib2 2026-04-11 21:08 213K
20260411T18Z_MSC_RDPS_GeopotentialHeight_IsbL-0005_RLatLon0.09_PT068H.grib2 2026-04-11 21:08 270K
20260411T18Z_MSC_RDPS_GeopotentialHeight_IsbL-0010_RLatLon0.09_PT068H.grib2 2026-04-11 21:08 315K
20260411T18Z_MSC_RDPS_GeopotentialHeight_IsbL-0020_RLatLon0.09_PT068H.grib2 2026-04-11 21:08 240K
20260411T18Z_MSC_RDPS_GeopotentialHeight_IsbL-0030_RLatLon0.09_PT068H.grib2 2026-04-11 21:08 316K
20260411T18Z_MSC_RDPS_GeopotentialHeight_IsbL-0050_RLatLon0.09_PT068H.grib2 2026-04-11 21:08 243K
20260411T18Z_MSC_RDPS_GeopotentialHeight_IsbL-0100_RLatLon0.09_PT068H.grib2 2026-04-11 21:08 224K
20260411T18Z_MSC_RDPS_GeopotentialHeight_IsbL-0150_RLatLon0.09_PT068H.grib2 2026-04-11 21:08 264K
20260411T18Z_MSC_RDPS_GeopotentialHeight_IsbL-0175_RLatLon0.09_PT068H.grib2 2026-04-11 21:08 265K
20260411T18Z_MSC_RDPS_GeopotentialHeight_IsbL-0200_RLatLon0.09_PT068H.grib2 2026-04-11 21:08 267K
20260411T18Z_MSC_RDPS_GeopotentialHeight_IsbL-0225_RLatLon0.09_PT068H.grib2 2026-04-11 21:08 267K
20260411T18Z_MSC_RDPS_GeopotentialHeight_IsbL-0250_RLatLon0.09_PT068H.grib2 2026-04-11 21:08 267K
20260411T18Z_MSC_RDPS_GeopotentialHeight_IsbL-0275_RLatLon0.09_PT068H.grib2 2026-04-11 21:08 266K
20260411T18Z_MSC_RDPS_GeopotentialHeight_IsbL-0300_RLatLon0.09_PT068H.grib2 2026-04-11 21:08 266K
20260411T18Z_MSC_RDPS_GeopotentialHeight_IsbL-0350_RLatLon0.09_PT068H.grib2 2026-04-11 21:08 260K
20260411T18Z_MSC_RDPS_GeopotentialHeight_IsbL-0400_RLatLon0.09_PT068H.grib2 2026-04-11 21:08 257K
20260411T18Z_MSC_RDPS_GeopotentialHeight_IsbL-0450_RLatLon0.09_PT068H.grib2 2026-04-11 21:08 223K
20260411T18Z_MSC_RDPS_GeopotentialHeight_IsbL-0500_RLatLon0.09_PT068H.grib2 2026-04-11 21:08 219K
20260411T18Z_MSC_RDPS_GeopotentialHeight_IsbL-0550_RLatLon0.09_PT068H.grib2 2026-04-11 21:08 287K
20260411T18Z_MSC_RDPS_GeopotentialHeight_IsbL-0600_RLatLon0.09_PT068H.grib2 2026-04-11 21:08 284K
20260411T18Z_MSC_RDPS_GeopotentialHeight_IsbL-0650_RLatLon0.09_PT068H.grib2 2026-04-11 21:08 283K
20260411T18Z_MSC_RDPS_GeopotentialHeight_IsbL-0700_RLatLon0.09_PT068H.grib2 2026-04-11 21:08 283K
20260411T18Z_MSC_RDPS_GeopotentialHeight_IsbL-0750_RLatLon0.09_PT068H.grib2 2026-04-11 21:08 285K
20260411T18Z_MSC_RDPS_GeopotentialHeight_IsbL-0800_RLatLon0.09_PT068H.grib2 2026-04-11 21:08 266K
20260411T18Z_MSC_RDPS_GeopotentialHeight_IsbL-0850_RLatLon0.09_PT068H.grib2 2026-04-11 21:08 277K
20260411T18Z_MSC_RDPS_GeopotentialHeight_IsbL-0875_RLatLon0.09_PT068H.grib2 2026-04-11 21:08 278K
20260411T18Z_MSC_RDPS_GeopotentialHeight_IsbL-0900_RLatLon0.09_PT068H.grib2 2026-04-11 21:08 282K
20260411T18Z_MSC_RDPS_GeopotentialHeight_IsbL-0925_RLatLon0.09_PT068H.grib2 2026-04-11 21:08 284K
20260411T18Z_MSC_RDPS_GeopotentialHeight_IsbL-0950_RLatLon0.09_PT068H.grib2 2026-04-11 21:08 286K
20260411T18Z_MSC_RDPS_GeopotentialHeight_IsbL-0970_RLatLon0.09_PT068H.grib2 2026-04-11 21:08 290K
20260411T18Z_MSC_RDPS_GeopotentialHeight_IsbL-0985_RLatLon0.09_PT068H.grib2 2026-04-11 21:08 296K
20260411T18Z_MSC_RDPS_GeopotentialHeight_IsbL-1000_RLatLon0.09_PT068H.grib2 2026-04-11 21:08 398K
20260411T18Z_MSC_RDPS_GeopotentialHeight_IsbL-1015_RLatLon0.09_PT068H.grib2 2026-04-11 21:08 412K
20260411T18Z_MSC_RDPS_Humidex_Sfc_RLatLon0.09_PT068H.grib2 2026-04-11 21:08 2.4M
20260411T18Z_MSC_RDPS_IcePellets-Accum1h_Sfc_RLatLon0.09_PT068H.grib2 2026-04-11 21:08 11K
20260411T18Z_MSC_RDPS_IcePellets-Accum_Sfc_RLatLon0.09_PT068H.grib2 2026-04-11 21:08 38K
20260411T18Z_MSC_RDPS_KIndex_Sfc_RLatLon0.09_PT068H.grib2 2026-04-11 21:08 2.5M
20260411T18Z_MSC_RDPS_LatentHeatNetFlux_Sfc_RLatLon0.09_PT068H.grib2 2026-04-11 21:08 347K
20260411T18Z_MSC_RDPS_LiftedIndex-MU-VT_IsbL-0500_RLatLon0.09_PT068H.grib2 2026-04-11 21:08 2.4M
20260411T18Z_MSC_RDPS_NetLongwaveRadiationFlux-Accum_Sfc_RLatLon0.09_PT068H.grib2 2026-04-11 21:08 453K
20260411T18Z_MSC_RDPS_NetShortwaveRadiationFlux-Accum_Sfc_RLatLon0.09_PT068H.grib2 2026-04-11 21:08 584K
20260411T18Z_MSC_RDPS_PlanetaryBoundaryLayerHeight_Sfc_RLatLon0.09_PT068H.grib2 2026-04-11 21:08 1.1M
20260411T18Z_MSC_RDPS_Precip-Accum1h_Sfc_RLatLon0.09_PT068H.grib2 2026-04-11 21:08 1.3M
20260411T18Z_MSC_RDPS_Precip-Accum_Sfc_RLatLon0.09_PT068H.grib2 2026-04-11 21:08 2.1M
20260411T18Z_MSC_RDPS_PrecipRate_Sfc_RLatLon0.09_PT068H.grib2 2026-04-11 21:08 196K
20260411T18Z_MSC_RDPS_PrecipType-Instant_Sfc_RLatLon0.09_PT068H.grib2 2026-04-11 21:08 640K
20260411T18Z_MSC_RDPS_Pressure-Trend3h_Sfc_RLatLon0.09_PT068H.grib2 2026-04-11 21:08 1.2M
20260411T18Z_MSC_RDPS_Pressure_MSL_RLatLon0.09_PT068H.grib2 2026-04-11 21:08 331K
20260411T18Z_MSC_RDPS_Pressure_PVU-1.5_RLatLon0.09_PT068H.grib2 2026-04-11 21:08 2.5M
20260411T18Z_MSC_RDPS_Pressure_PVU-1_RLatLon0.09_PT068H.grib2 2026-04-11 21:08 2.4M
20260411T18Z_MSC_RDPS_Pressure_PVU-2_RLatLon0.09_PT068H.grib2 2026-04-11 21:08 2.4M
20260411T18Z_MSC_RDPS_Pressure_Sfc_RLatLon0.09_PT068H.grib2 2026-04-11 21:08 502K
20260411T18Z_MSC_RDPS_RadiativeTemp_Sfc_RLatLon0.09_PT068H.grib2 2026-04-11 21:08 313K
20260411T18Z_MSC_RDPS_Rain-Accum1h_Sfc_RLatLon0.09_PT068H.grib2 2026-04-11 21:08 657K
20260411T18Z_MSC_RDPS_Rain-Accum_Sfc_RLatLon0.09_PT068H.grib2 2026-04-11 21:08 1.7M
20260411T18Z_MSC_RDPS_RelativeHumidity_AGL-2m_RLatLon0.09_PT068H.grib2 2026-04-11 21:08 1.0M
20260411T18Z_MSC_RDPS_RelativeHumidity_IsbL-0010_RLatLon0.09_PT068H.grib2 2026-04-11 21:08 512K
20260411T18Z_MSC_RDPS_RelativeHumidity_IsbL-0020_RLatLon0.09_PT068H.grib2 2026-04-11 21:08 404K
20260411T18Z_MSC_RDPS_RelativeHumidity_IsbL-0030_RLatLon0.09_PT068H.grib2 2026-04-11 21:08 379K
20260411T18Z_MSC_RDPS_RelativeHumidity_IsbL-0050_RLatLon0.09_PT068H.grib2 2026-04-11 21:08 297K
20260411T18Z_MSC_RDPS_RelativeHumidity_IsbL-0100_RLatLon0.09_PT068H.grib2 2026-04-11 21:08 376K
20260411T18Z_MSC_RDPS_RelativeHumidity_IsbL-0150_RLatLon0.09_PT068H.grib2 2026-04-11 21:08 378K
20260411T18Z_MSC_RDPS_RelativeHumidity_IsbL-0175_RLatLon0.09_PT068H.grib2 2026-04-11 21:08 453K
20260411T18Z_MSC_RDPS_RelativeHumidity_IsbL-0200_RLatLon0.09_PT068H.grib2 2026-04-11 21:08 525K
20260411T18Z_MSC_RDPS_RelativeHumidity_IsbL-0225_RLatLon0.09_PT068H.grib2 2026-04-11 21:08 591K
20260411T18Z_MSC_RDPS_RelativeHumidity_IsbL-0250_RLatLon0.09_PT068H.grib2 2026-04-11 21:08 657K
20260411T18Z_MSC_RDPS_RelativeHumidity_IsbL-0275_RLatLon0.09_PT068H.grib2 2026-04-11 21:08 684K
20260411T18Z_MSC_RDPS_RelativeHumidity_IsbL-0300_RLatLon0.09_PT068H.grib2 2026-04-11 21:08 731K
20260411T18Z_MSC_RDPS_RelativeHumidity_IsbL-0350_RLatLon0.09_PT068H.grib2 2026-04-11 21:08 758K
20260411T18Z_MSC_RDPS_RelativeHumidity_IsbL-0400_RLatLon0.09_PT068H.grib2 2026-04-11 21:08 770K
20260411T18Z_MSC_RDPS_RelativeHumidity_IsbL-0450_RLatLon0.09_PT068H.grib2 2026-04-11 21:08 779K
20260411T18Z_MSC_RDPS_RelativeHumidity_IsbL-0500_RLatLon0.09_PT068H.grib2 2026-04-11 21:08 790K
20260411T18Z_MSC_RDPS_RelativeHumidity_IsbL-0550_RLatLon0.09_PT068H.grib2 2026-04-11 21:08 813K
20260411T18Z_MSC_RDPS_RelativeHumidity_IsbL-0600_RLatLon0.09_PT068H.grib2 2026-04-11 21:08 837K
20260411T18Z_MSC_RDPS_RelativeHumidity_IsbL-0650_RLatLon0.09_PT068H.grib2 2026-04-11 21:08 849K
20260411T18Z_MSC_RDPS_RelativeHumidity_IsbL-0700_RLatLon0.09_PT068H.grib2 2026-04-11 21:08 880K
20260411T18Z_MSC_RDPS_RelativeHumidity_IsbL-0750_RLatLon0.09_PT068H.grib2 2026-04-11 21:08 920K
20260411T18Z_MSC_RDPS_RelativeHumidity_IsbL-0800_RLatLon0.09_PT068H.grib2 2026-04-11 21:08 1.0M
20260411T18Z_MSC_RDPS_RelativeHumidity_IsbL-0850_RLatLon0.09_PT068H.grib2 2026-04-11 21:08 1.0M
20260411T18Z_MSC_RDPS_RelativeHumidity_IsbL-0875_RLatLon0.09_PT068H.grib2 2026-04-11 21:08 1.1M
20260411T18Z_MSC_RDPS_RelativeHumidity_IsbL-0900_RLatLon0.09_PT068H.grib2 2026-04-11 21:08 1.1M
20260411T18Z_MSC_RDPS_RelativeHumidity_IsbL-0925_RLatLon0.09_PT068H.grib2 2026-04-11 21:08 1.1M
20260411T18Z_MSC_RDPS_RelativeHumidity_IsbL-0950_RLatLon0.09_PT068H.grib2 2026-04-11 21:08 1.1M
20260411T18Z_MSC_RDPS_RelativeHumidity_IsbL-0970_RLatLon0.09_PT068H.grib2 2026-04-11 21:08 1.0M
20260411T18Z_MSC_RDPS_RelativeHumidity_IsbL-0985_RLatLon0.09_PT068H.grib2 2026-04-11 21:08 1.0M
20260411T18Z_MSC_RDPS_RelativeHumidity_IsbL-1000_RLatLon0.09_PT068H.grib2 2026-04-11 21:08 1.0M
20260411T18Z_MSC_RDPS_RelativeHumidity_IsbL-1015_RLatLon0.09_PT068H.grib2 2026-04-11 21:08 1.0M
20260411T18Z_MSC_RDPS_Runoff-Accum_Sfc_RLatLon0.09_PT068H.grib2 2026-04-11 21:08 66K
20260411T18Z_MSC_RDPS_SWEATIndex_Sfc_RLatLon0.09_PT068H.grib2 2026-04-11 21:08 2.4M
20260411T18Z_MSC_RDPS_SeeingIndex_EAtm_RLatLon0.09_PT068H.grib2 2026-04-11 21:08 1.0M
20260411T18Z_MSC_RDPS_SensibleHeatNetFlux_Sfc_RLatLon0.09_PT068H.grib2 2026-04-11 21:08 335K
20260411T18Z_MSC_RDPS_ShowalterIndex_IsbL-0500_RLatLon0.09_PT068H.grib2 2026-04-11 21:08 2.6M
20260411T18Z_MSC_RDPS_SkyTransparencyIndex_EAtm_RLatLon0.09_PT068H.grib2 2026-04-11 21:08 695K
20260411T18Z_MSC_RDPS_Snow-Accum1h_Sfc_RLatLon0.09_PT068H.grib2 2026-04-11 21:08 454K
20260411T18Z_MSC_RDPS_Snow-Accum_Sfc_RLatLon0.09_PT068H.grib2 2026-04-11 21:08 833K
20260411T18Z_MSC_RDPS_SnowDensity_Sfc_RLatLon0.09_PT068H.grib2 2026-04-11 21:08 180K
20260411T18Z_MSC_RDPS_SnowDepth_Sfc_RLatLon0.09_PT068H.grib2 2026-04-11 21:08 740K
20260411T18Z_MSC_RDPS_SoilTemp_DBS-0to10cm_RLatLon0.09_PT068H.grib2 2026-04-11 21:08 239K
20260411T18Z_MSC_RDPS_SoilTemp_Sfc_RLatLon0.09_PT068H.grib2 2026-04-11 21:08 286K
20260411T18Z_MSC_RDPS_SoilVolumetricIceContent_Sfc_RLatLon0.09_PT068H.grib2 2026-04-11 21:08 178K
20260411T18Z_MSC_RDPS_SoilVolumetricWaterContent_DBS-0to10cm_RLatLon0.09_PT068H.grib2 2026-04-11 21:08 243K
20260411T18Z_MSC_RDPS_SoilVolumetricWaterContent_DBS-0to1cm_RLatLon0.09_PT068H.grib2 2026-04-11 21:08 339K
20260411T18Z_MSC_RDPS_SpecificHumidity_AGL-120m_RLatLon0.09_PT068H.grib2 2026-04-11 21:08 474K
20260411T18Z_MSC_RDPS_SpecificHumidity_AGL-2m_RLatLon0.09_PT068H.grib2 2026-04-11 21:08 637K
20260411T18Z_MSC_RDPS_SpecificHumidity_AGL-40m_RLatLon0.09_PT068H.grib2 2026-04-11 21:08 480K
20260411T18Z_MSC_RDPS_SpecificHumidity_AGL-80m_RLatLon0.09_PT068H.grib2 2026-04-11 21:08 476K
20260411T18Z_MSC_RDPS_SpecificHumidity_IsbL-0001_RLatLon0.09_PT068H.grib2 2026-04-11 21:08 299K
20260411T18Z_MSC_RDPS_SpecificHumidity_IsbL-0005_RLatLon0.09_PT068H.grib2 2026-04-11 21:08 335K
20260411T18Z_MSC_RDPS_SpecificHumidity_IsbL-0010_RLatLon0.09_PT068H.grib2 2026-04-11 21:08 356K
20260411T18Z_MSC_RDPS_SpecificHumidity_IsbL-0020_RLatLon0.09_PT068H.grib2 2026-04-11 21:08 365K
20260411T18Z_MSC_RDPS_SpecificHumidity_IsbL-0030_RLatLon0.09_PT068H.grib2 2026-04-11 21:08 367K
20260411T18Z_MSC_RDPS_SpecificHumidity_IsbL-0050_RLatLon0.09_PT068H.grib2 2026-04-11 21:08 473K
20260411T18Z_MSC_RDPS_SpecificHumidity_IsbL-0100_RLatLon0.09_PT068H.grib2 2026-04-11 21:08 398K
20260411T18Z_MSC_RDPS_SpecificHumidity_IsbL-0150_RLatLon0.09_PT068H.grib2 2026-04-11 21:08 430K
20260411T18Z_MSC_RDPS_SpecificHumidity_IsbL-0175_RLatLon0.09_PT068H.grib2 2026-04-11 21:08 510K
20260411T18Z_MSC_RDPS_SpecificHumidity_IsbL-0200_RLatLon0.09_PT068H.grib2 2026-04-11 21:08 418K
20260411T18Z_MSC_RDPS_SpecificHumidity_IsbL-0225_RLatLon0.09_PT068H.grib2 2026-04-11 21:08 421K
20260411T18Z_MSC_RDPS_SpecificHumidity_IsbL-0250_RLatLon0.09_PT068H.grib2 2026-04-11 21:08 526K
20260411T18Z_MSC_RDPS_SpecificHumidity_IsbL-0275_RLatLon0.09_PT068H.grib2 2026-04-11 21:08 444K
20260411T18Z_MSC_RDPS_SpecificHumidity_IsbL-0300_RLatLon0.09_PT068H.grib2 2026-04-11 21:08 542K
20260411T18Z_MSC_RDPS_SpecificHumidity_IsbL-0350_RLatLon0.09_PT068H.grib2 2026-04-11 21:08 539K
20260411T18Z_MSC_RDPS_SpecificHumidity_IsbL-0400_RLatLon0.09_PT068H.grib2 2026-04-11 21:08 493K
20260411T18Z_MSC_RDPS_SpecificHumidity_IsbL-0450_RLatLon0.09_PT068H.grib2 2026-04-11 21:08 547K
20260411T18Z_MSC_RDPS_SpecificHumidity_IsbL-0500_RLatLon0.09_PT068H.grib2 2026-04-11 21:08 485K
20260411T18Z_MSC_RDPS_SpecificHumidity_IsbL-0550_RLatLon0.09_PT068H.grib2 2026-04-11 21:08 544K
20260411T18Z_MSC_RDPS_SpecificHumidity_IsbL-0600_RLatLon0.09_PT068H.grib2 2026-04-11 21:08 616K
20260411T18Z_MSC_RDPS_SpecificHumidity_IsbL-0650_RLatLon0.09_PT068H.grib2 2026-04-11 21:08 533K
20260411T18Z_MSC_RDPS_SpecificHumidity_IsbL-0700_RLatLon0.09_PT068H.grib2 2026-04-11 21:08 575K
20260411T18Z_MSC_RDPS_SpecificHumidity_IsbL-0750_RLatLon0.09_PT068H.grib2 2026-04-11 21:08 627K
20260411T18Z_MSC_RDPS_SpecificHumidity_IsbL-0800_RLatLon0.09_PT068H.grib2 2026-04-11 21:08 697K
20260411T18Z_MSC_RDPS_SpecificHumidity_IsbL-0850_RLatLon0.09_PT068H.grib2 2026-04-11 21:08 786K
20260411T18Z_MSC_RDPS_SpecificHumidity_IsbL-0875_RLatLon0.09_PT068H.grib2 2026-04-11 21:08 804K
20260411T18Z_MSC_RDPS_SpecificHumidity_IsbL-0900_RLatLon0.09_PT068H.grib2 2026-04-11 21:08 808K
20260411T18Z_MSC_RDPS_SpecificHumidity_IsbL-0925_RLatLon0.09_PT068H.grib2 2026-04-11 21:08 809K
20260411T18Z_MSC_RDPS_SpecificHumidity_IsbL-0950_RLatLon0.09_PT068H.grib2 2026-04-11 21:08 809K
20260411T18Z_MSC_RDPS_SpecificHumidity_IsbL-0970_RLatLon0.09_PT068H.grib2 2026-04-11 21:08 810K
20260411T18Z_MSC_RDPS_SpecificHumidity_IsbL-0985_RLatLon0.09_PT068H.grib2 2026-04-11 21:08 665K
20260411T18Z_MSC_RDPS_SpecificHumidity_IsbL-1000_RLatLon0.09_PT068H.grib2 2026-04-11 21:08 655K
20260411T18Z_MSC_RDPS_SpecificHumidity_IsbL-1015_RLatLon0.09_PT068H.grib2 2026-04-11 21:08 645K
20260411T18Z_MSC_RDPS_SpecificHumidity_Sfc_RLatLon0.09_PT068H.grib2 2026-04-11 21:08 288K
20260411T18Z_MSC_RDPS_StormRelativeHelicity_EtaL-10000_RLatLon0.09_PT068H.grib2 2026-04-11 21:08 1.1M
20260411T18Z_MSC_RDPS_StormSeverityIndex_EtaL-10000_RLatLon0.09_PT068H.grib2 2026-04-11 21:08 1.2M
20260411T18Z_MSC_RDPS_Thickness_IsbL-0850to0700_RLatLon0.09_PT068H.grib2 2026-04-11 21:08 178K
20260411T18Z_MSC_RDPS_Thickness_IsbL-1000to0500_RLatLon0.09_PT068H.grib2 2026-04-11 21:08 198K
20260411T18Z_MSC_RDPS_Thickness_IsbL-1000to0850_RLatLon0.09_PT068H.grib2 2026-04-11 21:08 188K
20260411T18Z_MSC_RDPS_TotalCloudCover_Sfc_RLatLon0.09_PT068H.grib2 2026-04-11 21:08 665K
20260411T18Z_MSC_RDPS_TotalTotalsIndex_Sfc_RLatLon0.09_PT068H.grib2 2026-04-11 21:08 2.4M
20260411T18Z_MSC_RDPS_UVIndex-ClearSky_Sfc_RLatLon0.09_PT068H.grib2 2026-04-11 21:08 190K
20260411T18Z_MSC_RDPS_UVIndex_Sfc_RLatLon0.09_PT068H.grib2 2026-04-11 21:08 415K
20260411T18Z_MSC_RDPS_UpwardLongwaveRadiationFlux_NTAtm_RLatLon0.09_PT068H.grib2 2026-04-11 21:08 481K
20260411T18Z_MSC_RDPS_UpwardShortwaveRadiationFlux_NTAtm_RLatLon0.09_PT068H.grib2 2026-04-11 21:08 390K
20260411T18Z_MSC_RDPS_VerticalVelocity_IsbL-0250_RLatLon0.09_PT068H.grib2 2026-04-11 21:08 576K
20260411T18Z_MSC_RDPS_VerticalVelocity_IsbL-0500_RLatLon0.09_PT068H.grib2 2026-04-11 21:08 547K
20260411T18Z_MSC_RDPS_VerticalVelocity_IsbL-0700_RLatLon0.09_PT068H.grib2 2026-04-11 21:08 624K
20260411T18Z_MSC_RDPS_VerticalVelocity_IsbL-0850_RLatLon0.09_PT068H.grib2 2026-04-11 21:08 701K
20260411T18Z_MSC_RDPS_VerticalWindShear_EtaL-6500_RLatLon0.09_PT068H.grib2 2026-04-11 21:08 1.2M
20260411T18Z_MSC_RDPS_WindChill_Sfc_RLatLon0.09_PT068H.grib2 2026-04-11 21:08 1.3M
20260411T18Z_MSC_RDPS_WindDir_AGL-10m_RLatLon0.09_PT068H.grib2 2026-04-11 21:08 953K
20260411T18Z_MSC_RDPS_WindDir_AGL-120m_RLatLon0.09_PT068H.grib2 2026-04-11 21:08 585K
20260411T18Z_MSC_RDPS_WindDir_AGL-40m_RLatLon0.09_PT068H.grib2 2026-04-11 21:08 614K
20260411T18Z_MSC_RDPS_WindDir_AGL-80m_RLatLon0.09_PT068H.grib2 2026-04-11 21:08 596K
20260411T18Z_MSC_RDPS_WindDir_IsbL-0001_RLatLon0.09_PT068H.grib2 2026-04-11 21:08 260K
20260411T18Z_MSC_RDPS_WindDir_IsbL-0005_RLatLon0.09_PT068H.grib2 2026-04-11 21:08 324K
20260411T18Z_MSC_RDPS_WindDir_IsbL-0010_RLatLon0.09_PT068H.grib2 2026-04-11 21:08 346K
20260411T18Z_MSC_RDPS_WindDir_IsbL-0020_RLatLon0.09_PT068H.grib2 2026-04-11 21:08 370K
20260411T18Z_MSC_RDPS_WindDir_IsbL-0030_RLatLon0.09_PT068H.grib2 2026-04-11 21:08 368K
20260411T18Z_MSC_RDPS_WindDir_IsbL-0050_RLatLon0.09_PT068H.grib2 2026-04-11 21:08 406K
20260411T18Z_MSC_RDPS_WindDir_IsbL-0100_RLatLon0.09_PT068H.grib2 2026-04-11 21:08 385K
20260411T18Z_MSC_RDPS_WindDir_IsbL-0150_RLatLon0.09_PT068H.grib2 2026-04-11 21:08 375K
20260411T18Z_MSC_RDPS_WindDir_IsbL-0175_RLatLon0.09_PT068H.grib2 2026-04-11 21:08 399K
20260411T18Z_MSC_RDPS_WindDir_IsbL-0200_RLatLon0.09_PT068H.grib2 2026-04-11 21:08 416K
20260411T18Z_MSC_RDPS_WindDir_IsbL-0225_RLatLon0.09_PT068H.grib2 2026-04-11 21:08 423K
20260411T18Z_MSC_RDPS_WindDir_IsbL-0250_RLatLon0.09_PT068H.grib2 2026-04-11 21:08 429K
20260411T18Z_MSC_RDPS_WindDir_IsbL-0275_RLatLon0.09_PT068H.grib2 2026-04-11 21:08 449K
20260411T18Z_MSC_RDPS_WindDir_IsbL-0300_RLatLon0.09_PT068H.grib2 2026-04-11 21:08 452K
20260411T18Z_MSC_RDPS_WindDir_IsbL-0350_RLatLon0.09_PT068H.grib2 2026-04-11 21:08 479K
20260411T18Z_MSC_RDPS_WindDir_IsbL-0400_RLatLon0.09_PT068H.grib2 2026-04-11 21:08 505K
20260411T18Z_MSC_RDPS_WindDir_IsbL-0450_RLatLon0.09_PT068H.grib2 2026-04-11 21:08 531K
20260411T18Z_MSC_RDPS_WindDir_IsbL-0500_RLatLon0.09_PT068H.grib2 2026-04-11 21:08 543K
20260411T18Z_MSC_RDPS_WindDir_IsbL-0550_RLatLon0.09_PT068H.grib2 2026-04-11 21:08 563K
20260411T18Z_MSC_RDPS_WindDir_IsbL-0600_RLatLon0.09_PT068H.grib2 2026-04-11 21:08 588K
20260411T18Z_MSC_RDPS_WindDir_IsbL-0650_RLatLon0.09_PT068H.grib2 2026-04-11 21:08 627K
20260411T18Z_MSC_RDPS_WindDir_IsbL-0700_RLatLon0.09_PT068H.grib2 2026-04-11 21:08 666K
20260411T18Z_MSC_RDPS_WindDir_IsbL-0750_RLatLon0.09_PT068H.grib2 2026-04-11 21:08 708K
20260411T18Z_MSC_RDPS_WindDir_IsbL-0800_RLatLon0.09_PT068H.grib2 2026-04-11 21:08 757K
20260411T18Z_MSC_RDPS_WindDir_IsbL-0850_RLatLon0.09_PT068H.grib2 2026-04-11 21:08 827K
20260411T18Z_MSC_RDPS_WindDir_IsbL-0875_RLatLon0.09_PT068H.grib2 2026-04-11 21:08 854K
20260411T18Z_MSC_RDPS_WindDir_IsbL-0900_RLatLon0.09_PT068H.grib2 2026-04-11 21:08 866K
20260411T18Z_MSC_RDPS_WindDir_IsbL-0925_RLatLon0.09_PT068H.grib2 2026-04-11 21:08 878K
20260411T18Z_MSC_RDPS_WindDir_IsbL-0950_RLatLon0.09_PT068H.grib2 2026-04-11 21:08 885K
20260411T18Z_MSC_RDPS_WindDir_IsbL-0970_RLatLon0.09_PT068H.grib2 2026-04-11 21:08 895K
20260411T18Z_MSC_RDPS_WindDir_IsbL-0985_RLatLon0.09_PT068H.grib2 2026-04-11 21:08 906K
20260411T18Z_MSC_RDPS_WindDir_IsbL-1000_RLatLon0.09_PT068H.grib2 2026-04-11 21:08 919K
20260411T18Z_MSC_RDPS_WindDir_IsbL-1015_RLatLon0.09_PT068H.grib2 2026-04-11 21:08 935K
20260411T18Z_MSC_RDPS_WindGust-Max_AGL-10m_RLatLon0.09_PT068H.grib2 2026-04-11 21:08 1.0M
20260411T18Z_MSC_RDPS_WindGust-Min_AGL-10m_RLatLon0.09_PT068H.grib2 2026-04-11 21:08 1.0M
20260411T18Z_MSC_RDPS_WindGust_AGL-10m_RLatLon0.09_PT068H.grib2 2026-04-11 21:08 1.0M
20260411T18Z_MSC_RDPS_WindSpeed_AGL-10m_RLatLon0.09_PT068H.grib2 2026-04-11 21:08 849K
20260411T18Z_MSC_RDPS_WindSpeed_AGL-120m_RLatLon0.09_PT068H.grib2 2026-04-11 21:08 547K
20260411T18Z_MSC_RDPS_WindSpeed_AGL-40m_RLatLon0.09_PT068H.grib2 2026-04-11 21:08 678K
20260411T18Z_MSC_RDPS_WindSpeed_AGL-80m_RLatLon0.09_PT068H.grib2 2026-04-11 21:08 546K
20260411T18Z_MSC_RDPS_WindSpeed_IsbL-0001_RLatLon0.09_PT068H.grib2 2026-04-11 21:08 250K
20260411T18Z_MSC_RDPS_WindSpeed_IsbL-0005_RLatLon0.09_PT068H.grib2 2026-04-11 21:08 340K
20260411T18Z_MSC_RDPS_WindSpeed_IsbL-0010_RLatLon0.09_PT068H.grib2 2026-04-11 21:08 350K
20260411T18Z_MSC_RDPS_WindSpeed_IsbL-0020_RLatLon0.09_PT068H.grib2 2026-04-11 21:08 338K
20260411T18Z_MSC_RDPS_WindSpeed_IsbL-0030_RLatLon0.09_PT068H.grib2 2026-04-11 21:08 339K
20260411T18Z_MSC_RDPS_WindSpeed_IsbL-0050_RLatLon0.09_PT068H.grib2 2026-04-11 21:08 381K
20260411T18Z_MSC_RDPS_WindSpeed_IsbL-0100_RLatLon0.09_PT068H.grib2 2026-04-11 21:08 496K
20260411T18Z_MSC_RDPS_WindSpeed_IsbL-0150_RLatLon0.09_PT068H.grib2 2026-04-11 21:08 371K
20260411T18Z_MSC_RDPS_WindSpeed_IsbL-0175_RLatLon0.09_PT068H.grib2 2026-04-11 21:08 396K
20260411T18Z_MSC_RDPS_WindSpeed_IsbL-0200_RLatLon0.09_PT068H.grib2 2026-04-11 21:08 436K
20260411T18Z_MSC_RDPS_WindSpeed_IsbL-0225_RLatLon0.09_PT068H.grib2 2026-04-11 21:08 441K
20260411T18Z_MSC_RDPS_WindSpeed_IsbL-0250_RLatLon0.09_PT068H.grib2 2026-04-11 21:08 443K
20260411T18Z_MSC_RDPS_WindSpeed_IsbL-0275_RLatLon0.09_PT068H.grib2 2026-04-11 21:08 458K
20260411T18Z_MSC_RDPS_WindSpeed_IsbL-0300_RLatLon0.09_PT068H.grib2 2026-04-11 21:08 455K
20260411T18Z_MSC_RDPS_WindSpeed_IsbL-0350_RLatLon0.09_PT068H.grib2 2026-04-11 21:08 466K
20260411T18Z_MSC_RDPS_WindSpeed_IsbL-0400_RLatLon0.09_PT068H.grib2 2026-04-11 21:08 472K
20260411T18Z_MSC_RDPS_WindSpeed_IsbL-0450_RLatLon0.09_PT068H.grib2 2026-04-11 21:08 457K
20260411T18Z_MSC_RDPS_WindSpeed_IsbL-0500_RLatLon0.09_PT068H.grib2 2026-04-11 21:08 458K
20260411T18Z_MSC_RDPS_WindSpeed_IsbL-0550_RLatLon0.09_PT068H.grib2 2026-04-11 21:08 462K
20260411T18Z_MSC_RDPS_WindSpeed_IsbL-0600_RLatLon0.09_PT068H.grib2 2026-04-11 21:08 592K
20260411T18Z_MSC_RDPS_WindSpeed_IsbL-0650_RLatLon0.09_PT068H.grib2 2026-04-11 21:08 613K
20260411T18Z_MSC_RDPS_WindSpeed_IsbL-0700_RLatLon0.09_PT068H.grib2 2026-04-11 21:08 681K
20260411T18Z_MSC_RDPS_WindSpeed_IsbL-0750_RLatLon0.09_PT068H.grib2 2026-04-11 21:08 714K
20260411T18Z_MSC_RDPS_WindSpeed_IsbL-0800_RLatLon0.09_PT068H.grib2 2026-04-11 21:08 763K
20260411T18Z_MSC_RDPS_WindSpeed_IsbL-0850_RLatLon0.09_PT068H.grib2 2026-04-11 21:08 828K
20260411T18Z_MSC_RDPS_WindSpeed_IsbL-0875_RLatLon0.09_PT068H.grib2 2026-04-11 21:08 851K
20260411T18Z_MSC_RDPS_WindSpeed_IsbL-0900_RLatLon0.09_PT068H.grib2 2026-04-11 21:08 860K
20260411T18Z_MSC_RDPS_WindSpeed_IsbL-0925_RLatLon0.09_PT068H.grib2 2026-04-11 21:08 870K
20260411T18Z_MSC_RDPS_WindSpeed_IsbL-0950_RLatLon0.09_PT068H.grib2 2026-04-11 21:08 871K
20260411T18Z_MSC_RDPS_WindSpeed_IsbL-0970_RLatLon0.09_PT068H.grib2 2026-04-11 21:08 872K
20260411T18Z_MSC_RDPS_WindSpeed_IsbL-0985_RLatLon0.09_PT068H.grib2 2026-04-11 21:08 865K
20260411T18Z_MSC_RDPS_WindSpeed_IsbL-1000_RLatLon0.09_PT068H.grib2 2026-04-11 21:08 858K
20260411T18Z_MSC_RDPS_WindSpeed_IsbL-1015_RLatLon0.09_PT068H.grib2 2026-04-11 21:08 848K
20260411T18Z_MSC_RDPS_WindU_AGL-10m_RLatLon0.09_PT068H.grib2 2026-04-11 21:08 437K
20260411T18Z_MSC_RDPS_WindU_AGL-120m_RLatLon0.09_PT068H.grib2 2026-04-11 21:08 542K
20260411T18Z_MSC_RDPS_WindU_AGL-40m_RLatLon0.09_PT068H.grib2 2026-04-11 21:08 544K
20260411T18Z_MSC_RDPS_WindU_AGL-80m_RLatLon0.09_PT068H.grib2 2026-04-11 21:08 543K
20260411T18Z_MSC_RDPS_WindU_IsbL-0001_RLatLon0.09_PT068H.grib2 2026-04-11 21:08 265K
20260411T18Z_MSC_RDPS_WindU_IsbL-0005_RLatLon0.09_PT068H.grib2 2026-04-11 21:08 304K
20260411T18Z_MSC_RDPS_WindU_IsbL-0010_RLatLon0.09_PT068H.grib2 2026-04-11 21:08 316K
20260411T18Z_MSC_RDPS_WindU_IsbL-0020_RLatLon0.09_PT068H.grib2 2026-04-11 21:08 335K
20260411T18Z_MSC_RDPS_WindU_IsbL-0030_RLatLon0.09_PT068H.grib2 2026-04-11 21:08 338K
20260411T18Z_MSC_RDPS_WindU_IsbL-0050_RLatLon0.09_PT068H.grib2 2026-04-11 21:08 373K
20260411T18Z_MSC_RDPS_WindU_IsbL-0100_RLatLon0.09_PT068H.grib2 2026-04-11 21:08 349K
20260411T18Z_MSC_RDPS_WindU_IsbL-0150_RLatLon0.09_PT068H.grib2 2026-04-11 21:08 390K
20260411T18Z_MSC_RDPS_WindU_IsbL-0175_RLatLon0.09_PT068H.grib2 2026-04-11 21:08 413K
20260411T18Z_MSC_RDPS_WindU_IsbL-0200_RLatLon0.09_PT068H.grib2 2026-04-11 21:08 428K
20260411T18Z_MSC_RDPS_WindU_IsbL-0225_RLatLon0.09_PT068H.grib2 2026-04-11 21:08 433K
20260411T18Z_MSC_RDPS_WindU_IsbL-0250_RLatLon0.09_PT068H.grib2 2026-04-11 21:08 337K
20260411T18Z_MSC_RDPS_WindU_IsbL-0275_RLatLon0.09_PT068H.grib2 2026-04-11 21:08 351K
20260411T18Z_MSC_RDPS_WindU_IsbL-0300_RLatLon0.09_PT068H.grib2 2026-04-11 21:08 348K
20260411T18Z_MSC_RDPS_WindU_IsbL-0350_RLatLon0.09_PT068H.grib2 2026-04-11 21:08 354K
20260411T18Z_MSC_RDPS_WindU_IsbL-0400_RLatLon0.09_PT068H.grib2 2026-04-11 21:08 359K
20260411T18Z_MSC_RDPS_WindU_IsbL-0450_RLatLon0.09_PT068H.grib2 2026-04-11 21:08 464K
20260411T18Z_MSC_RDPS_WindU_IsbL-0500_RLatLon0.09_PT068H.grib2 2026-04-11 21:08 466K
20260411T18Z_MSC_RDPS_WindU_IsbL-0550_RLatLon0.09_PT068H.grib2 2026-04-11 21:08 470K
20260411T18Z_MSC_RDPS_WindU_IsbL-0600_RLatLon0.09_PT068H.grib2 2026-04-11 21:08 480K
20260411T18Z_MSC_RDPS_WindU_IsbL-0650_RLatLon0.09_PT068H.grib2 2026-04-11 21:08 499K
20260411T18Z_MSC_RDPS_WindU_IsbL-0700_RLatLon0.09_PT068H.grib2 2026-04-11 21:08 520K
20260411T18Z_MSC_RDPS_WindU_IsbL-0750_RLatLon0.09_PT068H.grib2 2026-04-11 21:08 547K
20260411T18Z_MSC_RDPS_WindU_IsbL-0800_RLatLon0.09_PT068H.grib2 2026-04-11 21:08 577K
20260411T18Z_MSC_RDPS_WindU_IsbL-0850_RLatLon0.09_PT068H.grib2 2026-04-11 21:08 635K
20260411T18Z_MSC_RDPS_WindU_IsbL-0875_RLatLon0.09_PT068H.grib2 2026-04-11 21:08 654K
20260411T18Z_MSC_RDPS_WindU_IsbL-0900_RLatLon0.09_PT068H.grib2 2026-04-11 21:08 664K
20260411T18Z_MSC_RDPS_WindU_IsbL-0925_RLatLon0.09_PT068H.grib2 2026-04-11 21:08 669K
20260411T18Z_MSC_RDPS_WindU_IsbL-0950_RLatLon0.09_PT068H.grib2 2026-04-11 21:08 667K
20260411T18Z_MSC_RDPS_WindU_IsbL-0970_RLatLon0.09_PT068H.grib2 2026-04-11 21:08 807K
20260411T18Z_MSC_RDPS_WindU_IsbL-0985_RLatLon0.09_PT068H.grib2 2026-04-11 21:08 802K
20260411T18Z_MSC_RDPS_WindU_IsbL-1000_RLatLon0.09_PT068H.grib2 2026-04-11 21:08 797K
20260411T18Z_MSC_RDPS_WindU_IsbL-1015_RLatLon0.09_PT068H.grib2 2026-04-11 21:08 789K
20260411T18Z_MSC_RDPS_WindV_AGL-10m_RLatLon0.09_PT068H.grib2 2026-04-11 21:08 435K
20260411T18Z_MSC_RDPS_WindV_AGL-120m_RLatLon0.09_PT068H.grib2 2026-04-11 21:08 423K
20260411T18Z_MSC_RDPS_WindV_AGL-40m_RLatLon0.09_PT068H.grib2 2026-04-11 21:08 542K
20260411T18Z_MSC_RDPS_WindV_AGL-80m_RLatLon0.09_PT068H.grib2 2026-04-11 21:08 541K
20260411T18Z_MSC_RDPS_WindV_IsbL-0001_RLatLon0.09_PT068H.grib2 2026-04-11 21:08 210K
20260411T18Z_MSC_RDPS_WindV_IsbL-0005_RLatLon0.09_PT068H.grib2 2026-04-11 21:08 238K
20260411T18Z_MSC_RDPS_WindV_IsbL-0010_RLatLon0.09_PT068H.grib2 2026-04-11 21:08 316K
20260411T18Z_MSC_RDPS_WindV_IsbL-0020_RLatLon0.09_PT068H.grib2 2026-04-11 21:08 368K
20260411T18Z_MSC_RDPS_WindV_IsbL-0030_RLatLon0.09_PT068H.grib2 2026-04-11 21:08 369K
20260411T18Z_MSC_RDPS_WindV_IsbL-0050_RLatLon0.09_PT068H.grib2 2026-04-11 21:08 403K
20260411T18Z_MSC_RDPS_WindV_IsbL-0100_RLatLon0.09_PT068H.grib2 2026-04-11 21:08 345K
20260411T18Z_MSC_RDPS_WindV_IsbL-0150_RLatLon0.09_PT068H.grib2 2026-04-11 21:08 387K
20260411T18Z_MSC_RDPS_WindV_IsbL-0175_RLatLon0.09_PT068H.grib2 2026-04-11 21:08 318K
20260411T18Z_MSC_RDPS_WindV_IsbL-0200_RLatLon0.09_PT068H.grib2 2026-04-11 21:08 332K
20260411T18Z_MSC_RDPS_WindV_IsbL-0225_RLatLon0.09_PT068H.grib2 2026-04-11 21:08 335K
20260411T18Z_MSC_RDPS_WindV_IsbL-0250_RLatLon0.09_PT068H.grib2 2026-04-11 21:08 336K
20260411T18Z_MSC_RDPS_WindV_IsbL-0275_RLatLon0.09_PT068H.grib2 2026-04-11 21:08 371K
20260411T18Z_MSC_RDPS_WindV_IsbL-0300_RLatLon0.09_PT068H.grib2 2026-04-11 21:08 369K
20260411T18Z_MSC_RDPS_WindV_IsbL-0350_RLatLon0.09_PT068H.grib2 2026-04-11 21:08 351K
20260411T18Z_MSC_RDPS_WindV_IsbL-0400_RLatLon0.09_PT068H.grib2 2026-04-11 21:08 356K
20260411T18Z_MSC_RDPS_WindV_IsbL-0450_RLatLon0.09_PT068H.grib2 2026-04-11 21:08 359K
20260411T18Z_MSC_RDPS_WindV_IsbL-0500_RLatLon0.09_PT068H.grib2 2026-04-11 21:08 465K
20260411T18Z_MSC_RDPS_WindV_IsbL-0550_RLatLon0.09_PT068H.grib2 2026-04-11 21:08 468K
20260411T18Z_MSC_RDPS_WindV_IsbL-0600_RLatLon0.09_PT068H.grib2 2026-04-11 21:08 478K
20260411T18Z_MSC_RDPS_WindV_IsbL-0650_RLatLon0.09_PT068H.grib2 2026-04-11 21:08 496K
20260411T18Z_MSC_RDPS_WindV_IsbL-0700_RLatLon0.09_PT068H.grib2 2026-04-11 21:08 502K
20260411T18Z_MSC_RDPS_WindV_IsbL-0750_RLatLon0.09_PT068H.grib2 2026-04-11 21:08 530K
20260411T18Z_MSC_RDPS_WindV_IsbL-0800_RLatLon0.09_PT068H.grib2 2026-04-11 21:08 573K
20260411T18Z_MSC_RDPS_WindV_IsbL-0850_RLatLon0.09_PT068H.grib2 2026-04-11 21:08 631K
20260411T18Z_MSC_RDPS_WindV_IsbL-0875_RLatLon0.09_PT068H.grib2 2026-04-11 21:08 650K
20260411T18Z_MSC_RDPS_WindV_IsbL-0900_RLatLon0.09_PT068H.grib2 2026-04-11 21:08 661K
20260411T18Z_MSC_RDPS_WindV_IsbL-0925_RLatLon0.09_PT068H.grib2 2026-04-11 21:08 666K
20260411T18Z_MSC_RDPS_WindV_IsbL-0950_RLatLon0.09_PT068H.grib2 2026-04-11 21:08 664K
20260411T18Z_MSC_RDPS_WindV_IsbL-0970_RLatLon0.09_PT068H.grib2 2026-04-11 21:08 664K
20260411T18Z_MSC_RDPS_WindV_IsbL-0985_RLatLon0.09_PT068H.grib2 2026-04-11 21:08 800K
20260411T18Z_MSC_RDPS_WindV_IsbL-1000_RLatLon0.09_PT068H.grib2 2026-04-11 21:08 794K
20260411T18Z_MSC_RDPS_WindV_IsbL-1015_RLatLon0.09_PT068H.grib2 2026-04-11 21:08 786K